Regional Weather Roundup
Issued by NWS Portland, ME

Current Version | Previous Version | Text Only | Print | Product List | Glossary Off
Versions: 1 2 3 4 5 6 7 8 9 10 11 12 13 14 15 16 17 18 19 20 21 22 23 24 25 26 27 28 29 30 31 32 33 34 35 36 37 38 39 40 41 42 43 44 45 46 47 48 49 50
549 ASUS41 KGYX 280505 RWRGYX WEATHER ROUNDUP FOR MAINE AND NEW HAMPSHIRE NATIONAL WEATHER SERVICE GRAY ME 100 AM EDT WED JUN 28 2017 MEZ002-005-006-010-012-015-018-020-021-024-026-027-029-280600- MAINE CITY SKY/WX TMP DP RH WIND PRES REMARKS PORTLAND PTCLDY 56 55 97 SW5 29.93F SANFORD CLEAR 52 52 100 W6 29.95F BAR HARBOR MOCLDY 57 54 89 S5 29.94F WISCASSET CLOUDY 56 55 97 CALM 29.94S FOG ROCKLAND CLOUDY 56 54 93 W6 29.92F FRYEBURG PTCLDY 50 50 100 CALM 29.94S FOG LEWISTONAUBURN CLOUDY 55 54 94 S3 29.93F FOG AUGUSTA CLOUDY 56 55 97 VRB3 29.92F FOG WATERVILLE CLOUDY 56 55 97 CALM 29.88F FOG BANGOR CLOUDY 58 57 97 SE6 29.92F GREENVILLE N/A 53 53 100 CALM 29.89S MILLINOCKET LGT RAIN 55 55 100 E5 29.92F HOULTON LGT RAIN 56 55 97 E6 29.91S PRESQUE ISLE LGT RAIN 55 54 96 S7 29.91F FRENCHVILLE CLOUDY 53 51 93 S6 29.89F CARIBOU LGT RAIN 56 53 90 S6 29.89F $$ NHZ002-005-008-009-011-012-014-280600- NEW HAMPSHIRE CITY SKY/WX TMP DP RH WIND PRES REMARKS PORTSMOUTH PTCLDY 55 53 94 SW5 29.94S ROCHESTER PTCLDY 52 49 89 CALM 29.94F FOG NASHUA CLEAR 55 51 86 W5 N/A MANCHESTER PTCLDY 55 52 89 S5 29.96S CONCORD CLEAR 51 50 96 CALM 29.97S LACONIA PTCLDY N/A N/A N/A SW5 29.96S PLYMOUTH FAIR 49 48 95 CALM 29.96S BERLIN CLOUDY 52 49 89 S3 29.94R WHITEFIELD CLOUDY 50 48 93 CALM 29.96S JAFFREY CLEAR 51 51 100 SW3 30.00S KEENE PTCLDY 49 49 100 CALM 30.00S FOG LEBANON CLEAR 49 47 93 CALM 29.97S MT WASHINGTON FOG 36 36 100 W26 N/A VSB 0 $$ VTZ005-007-008-280600- VERMONT CITY SKY/WX TMP DP RH WIND PRES REMARKS ST JOHNSBURY N/A 53 53 100 MISG 29.94S MONTPELIER CLOUDY 50 50 100 SW5 30.00R BURLINGTON CLOUDY 56 53 90 S7 29.95S $$ MAZ007-012-024-CTZ003-RIZ002-NYZ038-NYZ072-280600- SOUTHERN NEW ENGLAND AND NY CITY SKY/WX TMP DP RH WIND PRES REMARKS BOSTON CLOUDY 61 53 75 W7 29.98S WORCESTER CLEAR 53 49 86 W8 30.00S NANTUCKET PTCLDY 63 63 100 W3 29.97F PROVIDENCE CLOUDY 60 53 77 NW5 30.00S HARTFORD PTCLDY 55 51 86 SW3 30.02R ALBANY MOCLDY 55 51 86 CALM 30.00S NEW YORK CITY PTCLDY 68 52 56 NW15 30.02R $$ ANZ081-ANZ082-ANZ150-NHZ014-MEZ023>029-280600- COASTAL MARINE OBSERVATIONS STATION/POSITION TIME TEMP WIND PRES WAVE AIR SEA DIR/SP/G HT/PER (UTC) (F) (DEG/KT/KT) (MB) (FT/S) MATINICUS ROCK 0400 59 200/ 8/ 9 1014.1R ISLE OF SHOALS 0400 58 220/ 9/ 9 1014.1R JEFFREYS LEDGE 0406 57 N/A 2/ 7 CASHES LEDGE BUO 0350 61 62 1014.3 2/ 7 GEORGES BANK BUO 0350 59 56 1014.8 2/ 7 $$ .............KEY.............. WCI - WIND CHILL TC - TEMPERATURE IN CELSIUS VSB - VISIBILITY IN MILES HX - HEAT INDEX FAIR- INDICATES FEW OR NO CLOUDS BELOW 12,000 FT, WITH NO SIGNIFICANT WEATHER AND/OR OBSTRUCTIONS TO VISIBILITY.

USA.gov is the U.S. government's official web portal to all federal, state and local government web resources and services.